153  
NZUS93 KARX 172310  
HRRWXR  
 
CURRENT HOURLY OBSERVATIONS ACROSS  
MUCH OF THE UPPER MISSISSIPPI VALLEY  
NATIONAL WEATHER SERVICE LA CROSSE WI  
500 PM CST THU JAN 17 2019  
 
   
..SOUTHEAST MINNESOTA
 
 
 
CITY SKY/WX TMP DP RH WIND PRES REMARKS  
ROCHESTER CLOUDY 20 15 81 W13 30.05R WCI 7  
ROCHESTER/MAYO CLOUDY 22 16 76 W12 30.07R WCI 11  
WINONA CLOUDY 27 19 74 W8 30.08S WCI 18  
AUSTIN FAIR 21 10 63 NW9 30.07R WCI 11  
ALBERT LEA NOT AVBL  
DODGE CENTER FAIR 18 12 79 W9 30.06R WCI 6  
PRESTON MOCLDY 21 16 81 NW14 30.05R WCI 8  
OWATONNA FAIR 18 10 73 W7 30.09R WCI 8  
FARIBAULT NOT AVBL  

 
   
..ELSEWHERE IN MINNESOTA
 
 
 
CITY SKY/WX TMP DP RH WIND PRES REMARKS  
MINNEAPOLIS FAIR 20 7 57 NW14 30.11R WCI 7  
INTNL FALLS FAIR 4 -5 66 W6 30.09R WCI -7  
DULUTH FAIR 13 -6 42 NW7 30.02R WCI 3  
RED WING FAIR 21 9 58 NW6 30.09R WCI 14  
REDWOOD FALLS CLOUDY 16 6 65 N7 30.15R WCI 6  
MANKATO FAIR 19 11 70 NW10 30.12R WCI 7  
WORTHINGTON CLEAR 18 8 65 N10 30.10S WCI 6  
FAIRMONT CLEAR 17 10 74 NW9 30.11F WCI 6  

 
   
..SOUTHWEST WISCONSIN
 
 
 
CITY SKY/WX TMP DP RH WIND PRES REMARKS  
LA CROSSE CLOUDY 27 20 75 NW9 30.06R WCI 18  
PRAIRIE DU CHI CLOUDY 30 21 68 W12 30.06R WCI 20  
BOSCOBEL CLOUDY 31 24 75 W6 30.05S WCI 25  
LONE ROCK CLOUDY 30 26 85 W7 30.03R WCI 23  
PLATTEVILLE CLOUDY 30 30 99 W8 30.02F WCI 23  
FORT MC COY MOCLDY 26 22 84 W8 30.05R WCI 18  
CAMP DOUGLAS CLOUDY 27 23 86 W12 30.02R WCI 16  
MAUSTON-NEW LI CLOUDY 28 23 81 W7 30.01R HAZE WCI 21  
VIROQUA CLOUDY 26 24 93 W7 30.01F WCI 19  
WIS DELLS MIX PCPN 28 24 82 W6 30.00S WCI 22  

 
   
..ELSEWHERE IN WISCONSIN
 
 
 
CITY SKY/WX TMP DP RH WIND PRES REMARKS  
MILWAUKEE CLOUDY 35 23 61 NW6 29.99S WCI 30  
MADISON CLOUDY 30 23 75 NW5 30.02R WCI 25  
GREEN BAY LGT SNOW 27 24 89 W3 29.99S FOG  
EAU CLAIRE MOCLDY 22 12 65 W9 30.05R WCI 12  
BLACK RVR FLS CLOUDY 26 19 76 NW6 30.04R WCI 19  
MEDFORD CLOUDY 19 15 83 NW8 29.98R WCI 9  
WAUSAU CLOUDY 23 18 81 W10 29.96R WCI 12  
WIS RAPIDS CLOUDY 26 18 71 W9 30.01R WCI 17  
MARSHFIELD CLOUDY 23 19 85 NW10 29.98R WCI 12  
RICE LAKE FAIR 19 8 62 W8 30.07R WCI 8  

 
   
..NORTHEAST IOWA
 
 
 
CITY SKY/WX TMP DP RH WIND PRES REMARKS  
WATERLOO CLOUDY 27 21 78 NW9 30.07S WCI 18  
DUBUQUE CLOUDY 28 25 88 W9 30.03S FOG WCI 19  
DECORAH CLOUDY 25 21 86 VRB7G16 30.03F WCI 17  
MASON CITY CLOUDY 21 17 84 NW14 30.09S WCI 8  
CHARLES CITY CLOUDY 23 19 86 NW9 30.07S WCI 13  
OELWEIN NOT AVBL  

 
   
..ELSEWHERE IN IOWA
 
 
 
CITY SKY/WX TMP DP RH WIND PRES REMARKS  
DES MOINES CLOUDY 28 23 81 NW10 30.10F WCI 19  
IOWA CITY CLOUDY 31 24 75 NW8 30.10R WCI 23  
FORT DODGE CLOUDY 24 19 81 VRB6 30.11R WCI 17  
MARSHALLTOWN CLOUDY 26 22 84 NW10 30.08R WCI 16  
CEDAR RAPIDS CLOUDY 28 25 88 NW10 30.06R FOG WCI 19  

 
   
..NORTHERN ILLINOIS
 
 
 
CITY SKY/WX TMP DP RH WIND PRES REMARKS  
CHICAGO-OHARE CLOUDY 33 27 78 W7 29.99S WCI 27  
CHICAGO-MIDWAY CLOUDY 35 28 75 NW8 30.00S WCI 29  
MOLINE CLOUDY 33 29 85 W10 30.05S FOG WCI 25  
ROCKFORD CLOUDY 31 26 82 W6 30.03S WCI 25  
PEORIA CLOUDY 33 28 81 NW5 30.05F WCI 29  

 
 
NOTE: "FAIR" INDICATES FEW OR NO CLOUDS BELOW 12,000 FEET WITH NO  
SIGNIFICANT WEATHER AND/OR OBSTRUCTIONS TO VISIBILITY. WIND  
SPEEDS ARE IN MILES-PER-HOUR.  
 
 
CLICK HERE TO GO TO PREVIOUS BULLETINS.

The Nexlab WI Page
The Nexlab IA Page
The Nexlab MN Page Main Text Page